Temp
22 22 22 21 18 15 17 20 22 22 24 21 21 22 19 19 20 20 18 19 17 18 19 20 20 18 19 19 20 19 20 19 19 19 18 18 18 19 18 18 18 17 17 17 17 16 16 16 16
23 22 21 16 17 16 17 20 23 23 23 22 21 22 19 19 19 18 17 18 19 19 18 18 18 17 18 19 19 18 18 18 18 18 17 17 18 18 18 18 18 18 17 17 16 16 16 17 16
23 22 18 17 14 16 18 21 22 21 21 23 21 20 19 19 19 18 18 18 19 17 18 19 20 19 17 18 18 18 18 18 18 18 17 17 18 18 18 18 18 18 17 17 16 17 18 18 17
22 19 17 18 18 19 22 22 22 22 20 20 19 19 18 17 16 17 18 18 17 16 18 18 19 17 17 17 18 18 17 17 17 17 17 17 18 18 18 18 18 18 17 18 18 18 18 17 18
21 16 17 18 19 20 22 22 21 21 19 19 20 19 19 17 16 17 17 18 18 18 16 19 16 18 16 16 18 18 17 17 17 17 17 17 18 18 18 18 18 18 19 19 18 19 18 17 17
18 16 17 17 20 22 22 22 22 22 21 19 19 18 18 16 16 16 16 17 20 18 17 17 16 16 16 16 17 17 17 17 17 17 17 17 17 17 17 18 18 18 18 18 18 18 18 17 16
18 17 17 19 21 22 23 21 20 19 19 18 18 19 17 16 16 16 17 17 17 18 18 18 16 17 16 15 16 16 17 17 17 17 17 17 17 17 18 18 18 18 18 18 18 18 18 17 17
17 18 19 19 21 21 22 21 20 20 17 19 19 18 17 16 15 16 16 16 18 17 17 16 16 15 15 14 13 16 17 17 17 17 17 17 17 17 18 18 18 18 18 18 18 18 18 18 17
21 18 17 20 22 24 22 21 19 19 19 18 18 17 16 15 15 16 16 15 16 16 15 16 16 16 15 14 13 14 17 17 17 17 17 17 17 17 18 18 18 18 18 18 18 18 18 18 17
20 17 20 21 25 22 21 21 19 19 19 19 16 16 15 15 15 15 15 15 15 15 15 16 15 15 14 13 13 15 16 17 17 17 17 17 17 17 18 18 18 17 18 17 18 17 17 17 17
21 20 23 24 25 20 19 19 19 19 19 18 17 16 15 14 14 14 14 14 14 14 14 14 15 15 15 14 14 15 16 16 17 17 18 17 18 17 18 17 18 18 18 17 17 17 17 17 17
23 23 23 24 24 22 20 19 19 20 19 18 17 17 16 15 14 14 13 13 14 14 14 14 14 14 13 14 14 15 16 16 17 17 18 18 18 18 18 18 18 18 17 17 17 16 16 16 16
22 23 24 25 21 18 21 19 18 17 17 17 16 17 15 14 14 12 12 12 13 13 14 14 14 13 13 13 15 16 16 17 17 17 18 18 18 18 18 18 18 17 17 17 17 16 16 16 16
23 23 23 25 24 20 19 18 20 18 17 16 15 14 14 14 13 12 12 11 11 11 12 13 13 13 14 15 16 16 17 17 17 17 18 18 18 18 18 18 17 17 17 17 17 16 16 16 16
23 23 22 24 25 21 19 20 20 18 17 16 15 16 14 13 13 12 12 11 11 12 11 13 13 13 15 15 16 16 16 17 17 18 18 18 18 18 18 18 17 17 17 17 16 16 16 16 16
22 22 21 23 24 22 22 20 20 17 17 15 14 14 14 13 12 12 11 11 11 11 11 11 12 14 14 15 15 15 16 16 16 17 17 17 17 17 17 17 17 17 17 17 16 17 16 16 16
20 19 21 21 23 22 22 20 20 17 17 15 14 13 14 12 12 12 11 11 10 11 11 11 11 11 13 13 14 14 15 16 16 16 17 17 17 17 17 18 18 17 17 17 17 17 16 16 16
19 20 21 21 23 22 20 20 20 17 17 16 14 13 13 13 12 12 11 11 10 10 11 11 12 13 14 14 13 13 14 16 15 17 18 18 18 17 17 17 17 17 17 17 17 17 16 16 16
21 21 20 21 23 22 20 20 19 17 17 16 15 14 14 14 13 12 10 10 10 10 10 10 11 12 13 13 13 14 14 14 15 16 17 18 18 17 17 17 17 17 17 17 17 17 16 16 16
21 20 21 22 24 23 21 20 20 17 17 17 16 15 15 14 13 12 11 10 10 10 11 10 10 12 12 12 13 13 14 15 14 16 17 17 17 17 17 17 17 17 17 17 17 16 16 16 16
21 21 21 23 25 24 19 20 20 19 19 18 18 17 16 15 13 13 12 11 10 10 10 11 10 11 12 14 13 13 13 13 13 14 15 16 17 17 17 17 17 17 17 16 16 16 16 16 15
21 23 23 24 22 21 22 19 20 20 19 19 18 18 17 16 15 14 13 12 11 11 11 10 11 11 12 12 12 12 12 12 14 14 15 17 17 17 17 17 17 17 16 16 16 16 16 16 15
22 22 23 23 22 21 22 20 20 21 19 19 19 18 18 16 15 15 14 13 12 12 11 11 11 12 12 12 12 12 13 13 15 15 16 17 17 17 17 17 17 16 16 15 15 16 15 15 15
24 24 23 22 20 18 20 20 19 19 21 22 21 19 19 18 16 16 15 14 13 13 12 12 11 11 12 12 12 13 13 14 15 16 16 17 17 18 17 17 16 17 15 15 15 15 15 15 14
23 21 19 19 17 17 20 20 20 21 23 23 22 21 20 19 18 16 15 15 14 13 13 13 12 12 13 13 13 14 14 14 16 17 17 16 16 17 17 17 16 15 15 15 15 15 14 14 14
21 20 17 17 16 19 19 20 21 23 23 24 23 23 22 20 19 18 17 16 15 14 14 14 13 14 14 14 14 14 14 14 15 16 16 17 18 18 18 17 17 16 15 15 15 14 14 14 13
22 20 21 17 16 15 17 19 21 23 24 24 22 21 21 21 20 19 18 17 17 15 15 14 14 14 14 15 15 15 15 15 15 16 16 17 18 18 18 17 16 15 15 14 14 14 13 13 12
23 22 20 17 17 18 18 19 19 22 25 25 23 21 21 21 20 19 19 18 17 16 16 15 15 15 15 15 15 15 16 15 15 16 17 17 17 18 17 16 16 15 14 14 13 12 13 12 11
22 21 21 19 17 16 17 18 20 22 24 22 23 22 21 21 21 21 20 20 18 18 17 16 15 15 15 16 16 16 16 16 15 15 16 17 17 17 16 16 15 14 14 14 12 12 12 11 10
22 21 21 18 19 17 14 18 22 21 21 21 23 23 21 20 20 22 21 21 19 19 18 17 17 16 16 16 16 16 16 16 16 14 15 14 15 16 15 15 15 14 13 12 11 11 10 10 9
Height
785 786 786 786 814 823 822 801 780 777 771 766 763 767 781 775 781 792 775 776 781 780 785 786 785 801 800 800 801 806 799 797 799 799 805 809 813 818 822 826 829 833 837 839 842 843 846 846 847
784 786 786 796 823 831 821 791 784 774 769 758 764 768 776 784 778 777 779 780 778 777 782 784 789 803 805 799 801 807 804 801 798 805 807 810 814 819 825 828 832 835 838 842 845 846 848 849 849
784 785 795 808 826 827 816 785 780 779 771 756 767 767 772 776 774 774 776 781 780 777 781 784 778 784 796 799 804 807 806 801 803 804 808 811 817 821 826 831 833 837 840 843 846 849 851 851 849
784 787 796 811 815 803 791 782 775 772 773 764 769 778 773 772 774 774 775 776 777 779 775 779 784 789 785 797 800 803 805 804 805 807 811 815 818 824 828 833 836 839 841 845 846 851 854 853 851
784 795 812 814 806 789 778 778 780 774 777 773 768 776 772 766 769 773 776 776 773 776 776 766 783 792 791 793 797 801 801 808 808 809 814 817 820 826 832 836 839 841 843 847 850 852 855 855 855
795 802 818 821 802 782 772 773 775 771 773 774 774 776 773 770 768 769 774 771 770 772 776 775 777 781 788 793 791 800 799 810 811 813 817 820 823 828 835 838 841 844 847 851 853 855 859 859 860
798 808 815 807 795 786 772 775 775 776 775 776 774 778 779 774 768 769 769 769 770 771 774 775 784 790 792 786 795 805 805 811 813 818 820 822 826 831 837 841 843 847 851 854 857 858 859 862 863
790 801 804 800 794 791 770 773 772 772 781 772 770 778 782 776 770 765 766 768 771 772 777 780 784 789 793 796 804 807 806 813 817 820 824 828 828 832 840 843 846 849 854 856 861 861 860 862 862
779 806 811 797 785 776 767 772 774 773 772 771 772 776 778 774 770 767 770 772 771 774 777 779 780 781 792 802 811 813 815 815 821 823 827 831 831 836 842 846 849 853 855 861 862 864 863 865 866
787 808 794 775 765 772 768 768 774 775 771 770 775 773 779 779 772 772 773 774 775 776 779 783 787 789 793 803 812 815 816 820 821 824 828 830 833 837 844 848 851 855 857 861 864 866 867 868 869
782 792 772 764 759 766 771 773 769 769 767 763 771 775 780 783 779 777 775 775 776 779 780 786 788 791 795 797 806 811 816 819 821 827 828 831 834 839 846 848 852 854 857 863 866 868 868 871 872
780 767 764 758 755 761 767 768 770 765 762 760 763 771 779 782 783 781 780 778 776 776 779 784 787 792 796 799 806 809 812 816 821 827 829 832 837 842 846 847 851 854 858 864 866 868 870 872 873
775 765 758 749 757 763 759 768 771 773 770 769 770 771 777 780 781 782 781 782 779 780 782 784 789 793 798 800 805 808 812 814 819 826 828 832 836 842 846 848 851 854 858 863 866 868 870 872 874
763 763 759 749 752 759 768 771 765 770 770 774 776 776 777 779 782 785 782 782 782 782 785 784 789 793 797 801 803 806 810 814 819 826 829 831 838 842 844 848 851 855 859 863 865 867 869 871 873
760 767 759 751 747 760 762 770 766 764 768 772 776 775 776 779 783 784 784 784 784 784 783 784 787 792 796 800 804 806 810 814 819 826 828 834 839 842 843 846 851 855 859 862 864 866 868 869 872
769 768 780 752 750 753 755 775 762 765 765 772 776 778 777 780 783 784 784 785 785 785 787 787 785 791 795 799 804 806 811 814 818 821 830 837 840 841 841 845 851 854 857 859 863 865 867 868 870
778 788 780 769 744 751 757 770 757 763 762 770 774 777 779 781 782 784 784 785 787 788 787 788 788 791 795 798 802 808 810 811 818 825 831 834 836 839 841 845 849 852 854 857 860 863 865 867 867
786 783 775 775 753 748 761 762 755 760 760 764 771 776 780 781 782 783 784 785 785 788 789 790 793 793 797 802 809 810 813 814 822 825 827 829 832 837 841 844 847 850 852 854 856 860 863 865 866
769 774 777 762 746 752 757 756 754 759 761 766 770 773 777 778 780 783 785 785 786 788 790 792 794 797 801 805 807 813 814 817 823 826 827 828 833 836 839 842 843 847 849 851 855 857 859 862 864
767 771 767 756 739 745 753 755 752 758 755 756 761 767 770 776 779 781 784 784 786 788 791 795 797 798 801 803 807 812 815 817 821 824 824 828 830 833 834 836 838 842 846 849 851 853 855 859 861
762 766 762 757 739 739 758 763 752 747 750 753 756 757 762 766 771 777 781 782 784 787 790 794 796 798 800 803 808 812 816 819 821 821 822 823 826 830 831 832 834 837 840 843 845 848 851 853 856
768 743 747 743 753 771 745 780 756 745 749 750 753 755 757 760 764 771 776 779 780 783 786 791 794 796 798 804 807 809 811 814 814 817 819 821 825 827 829 829 831 833 836 839 841 844 847 850 852
752 738 740 741 749 755 752 768 756 741 752 747 744 748 749 752 756 763 768 770 774 780 784 787 791 793 796 800 803 806 810 812 814 816 817 818 821 822 824 826 828 831 832 835 837 839 842 844 847
731 733 737 744 755 776 758 763 761 754 736 728 731 735 740 746 751 755 759 766 770 774 778 782 787 790 795 799 802 803 804 807 808 809 810 812 814 815 818 820 824 825 828 830 833 835 837 838 841
733 750 774 778 784 783 753 756 749 727 716 711 715 722 728 735 744 749 755 760 765 769 772 776 780 785 789 794 795 797 798 803 803 802 804 805 807 808 810 814 817 820 822 825 828 830 832 834 836
737 745 776 788 792 772 757 757 738 712 705 704 708 706 711 725 731 737 743 748 753 758 765 771 772 774 778 782 784 787 791 794 795 796 798 798 799 801 805 807 809 813 817 821 823 826 827 829 832
731 744 734 769 778 785 766 747 721 706 701 700 704 708 711 715 720 725 731 738 744 749 753 756 763 766 767 770 776 779 783 786 788 789 791 792 793 797 799 801 805 809 812 815 818 820 822 825 827
716 718 747 760 777 777 762 756 748 716 706 699 703 706 705 706 713 716 723 728 734 738 741 748 753 751 758 769 771 772 774 780 783 784 783 785 788 791 794 797 799 803 806 810 813 816 819 821 824
720 724 724 735 754 772 775 759 720 710 703 707 703 702 699 699 702 706 712 718 722 729 737 740 744 750 755 758 756 756 760 766 772 777 780 780 781 785 788 791 794 796 801 804 808 811 813 816 819
703 711 717 745 749 752 769 747 704 706 704 704 698 696 697 694 693 697 701 706 714 719 726 729 732 741 742 743 747 750 758 761 765 767 770 775 774 779 782 786 788 791 794 799 802 806 808 810 813
Wind_Speed
3 3 4 4 3 4 4 7 5 10 6 5 4 6 8 4 4 7 2 9 18 25 27 26 27 16 25 30 29 29 32 36 39 41 42 40 39 37 36 36 35 33 30 30 29 28 26 25 25
3 3 3 2 3 2 5 5 5 4 3 11 7 2 5 2 2 3 3 19 30 30 31 33 32 21 22 28 28 29 32 36 38 41 41 41 39 38 37 36 34 33 30 27 26 25 25 25 25
5 2 3 3 3 3 4 3 7 5 9 3 5 5 4 3 3 6 2 18 29 25 28 38 29 35 27 34 32 31 33 36 39 42 42 41 39 38 37 36 35 32 29 26 25 25 24 22 19
4 5 4 2 7 7 7 6 6 3 5 6 4 5 0 0 4 3 1 17 15 26 31 40 34 40 40 35 35 33 34 36 39 41 40 40 39 38 37 35 33 31 28 26 26 24 23 22 22
2 3 2 2 7 5 4 1 7 4 3 5 2 4 3 2 2 2 3 13 14 19 31 24 32 42 34 36 36 37 37 36 38 40 40 39 39 36 35 33 31 30 29 26 24 23 24 25 26
3 3 1 3 4 6 6 5 5 5 2 1 4 2 4 9 8 4 1 11 13 21 18 24 30 36 32 34 36 37 38 35 37 38 39 39 37 35 33 32 31 29 27 24 22 21 23 30 24
6 3 4 5 10 8 2 6 3 7 3 3 1 1 3 8 16 7 3 9 16 11 12 19 24 30 22 32 24 33 36 34 35 35 36 38 36 34 32 30 30 28 25 22 20 20 22 24 25
5 3 4 5 4 6 3 4 3 6 2 3 2 4 1 4 9 7 7 8 14 13 21 24 23 26 27 31 33 23 33 33 33 35 36 37 35 33 30 30 28 26 23 22 18 21 20 20 23
4 1 5 6 5 5 1 4 3 1 5 2 3 2 3 1 4 6 11 14 17 14 26 26 36 29 33 32 26 28 29 32 33 35 35 34 33 31 30 28 26 24 22 19 19 18 17 17 19
4 3 7 7 2 4 3 4 5 3 2 2 3 8 3 5 2 2 2 9 16 21 26 34 35 37 38 38 31 29 31 33 33 34 33 33 32 31 30 27 25 22 20 17 18 15 12 12 12
4 6 9 14 7 9 7 3 4 8 3 5 3 5 4 3 2 4 3 5 11 20 20 30 29 32 39 40 36 28 34 35 35 33 34 32 31 31 29 27 24 22 19 16 15 10 8 11 9
2 12 11 9 7 5 7 8 4 2 2 7 8 7 7 5 3 3 5 8 14 16 21 27 36 39 37 40 40 36 37 37 36 35 32 32 32 30 29 26 23 21 18 15 12 13 11 9 10
6 6 9 5 9 5 7 6 5 4 5 5 5 7 8 8 5 3 2 3 11 14 21 28 34 37 37 33 38 39 41 39 37 35 32 32 31 30 27 23 21 19 17 13 11 12 10 9 7
3 7 8 7 4 9 8 3 1 6 8 8 7 7 7 7 5 5 3 3 7 10 18 33 34 35 37 38 36 38 40 37 37 35 31 31 31 28 24 22 19 17 17 15 13 12 12 10 5
5 6 9 6 2 6 9 2 5 12 13 12 8 8 5 5 8 9 12 11 12 12 12 30 37 38 41 38 35 38 32 33 37 34 28 30 27 25 22 19 17 18 17 13 16 14 13 11 8
5 3 4 7 1 4 3 6 4 13 14 12 9 7 7 6 7 8 9 10 12 14 16 14 31 38 35 37 37 39 34 36 34 30 27 26 22 19 17 13 16 18 16 18 18 16 14 14 11
2 5 5 9 4 6 4 5 6 12 13 12 10 7 8 5 7 12 11 12 15 17 19 18 25 33 37 42 37 33 33 35 29 30 27 20 15 15 15 14 16 17 22 22 21 18 18 17 15
6 4 2 6 5 4 5 7 4 10 12 14 10 9 9 8 9 14 15 14 15 17 20 25 24 28 33 35 32 27 31 36 30 28 28 24 11 11 14 16 16 18 21 21 22 23 19 16 16
6 6 10 11 8 4 9 6 9 8 7 12 11 12 11 11 11 16 18 20 20 19 19 20 31 32 34 34 34 30 28 34 33 30 30 25 18 16 18 18 18 19 25 25 24 20 19 17 18
9 11 16 8 5 6 6 13 3 9 6 16 15 13 14 11 10 14 17 22 24 24 26 25 25 36 33 32 31 33 34 37 40 36 37 35 27 20 23 22 22 23 26 27 25 25 23 17 19
13 11 12 8 4 2 6 5 6 6 4 7 13 14 15 18 16 14 19 21 24 24 29 31 30 35 35 38 36 29 30 29 32 35 38 39 29 29 29 27 25 26 28 31 29 29 29 26 22
13 13 9 4 3 3 4 4 5 6 7 7 12 15 16 18 16 16 20 24 27 29 30 31 35 35 37 33 32 30 27 27 32 32 35 37 31 30 26 28 27 27 32 33 30 29 30 27 24
14 10 8 7 4 3 4 2 5 4 6 13 15 18 17 18 20 20 22 31 32 31 31 34 34 36 34 37 33 31 27 27 27 31 34 37 38 35 32 30 29 31 34 34 29 28 31 31 27
11 3 1 3 1 1 3 5 5 6 11 16 17 19 20 19 21 21 31 31 32 34 34 34 35 35 38 38 36 33 32 30 33 36 39 40 40 40 35 34 34 34 34 28 28 28 31 31 26
5 5 2 3 3 6 4 2 7 7 14 19 20 20 21 20 20 21 21 26 31 34 37 36 37 36 37 38 40 42 40 35 36 42 40 38 38 39 37 35 35 29 29 29 28 30 31 31 25
7 8 6 6 3 4 4 5 6 5 1 6 16 22 21 20 22 23 24 31 36 39 40 40 41 41 43 43 43 45 44 37 41 42 39 42 41 40 35 33 32 31 30 30 29 29 30 29 27
6 4 7 7 3 2 4 7 8 6 4 2 10 9 15 18 21 24 23 33 35 38 42 46 44 44 45 46 42 42 40 40 37 42 41 42 42 40 36 35 32 29 30 29 30 29 28 28 28
11 7 4 2 5 3 3 4 5 6 2 4 4 12 14 17 17 20 19 29 35 39 44 45 44 48 45 36 36 39 40 38 36 39 44 45 43 43 37 34 29 30 30 28 28 30 29 27 22
3 4 3 6 5 5 1 5 6 7 6 6 6 8 9 15 17 18 20 30 36 37 35 41 43 39 39 41 45 48 46 42 38 36 41 42 43 40 37 34 29 29 30 30 27 29 28 24 21
6 9 8 5 4 3 4 7 3 8 7 8 5 6 5 7 11 17 18 29 33 35 36 39 41 39 44 47 43 40 31 34 32 34 34 25 31 37 34 28 25 28 31 27 28 28 25 24 26
Wind_Direction
314 306 343 51 42 62 268 266 335 282 310 69 345 46 87 26 57 123 178 166 149 156 160 161 155 188 165 154 150 151 141 137 135 131 128 124 122 122 119 117 114 110 109 109 107 105 104 104 103
325 23 65 98 95 36 274 250 328 4 9 130 118 135 50 96 82 120 150 169 162 159 161 153 158 189 184 160 158 151 141 136 131 131 127 126 125 124 122 119 116 115 113 113 110 107 104 99 96
330 66 90 127 142 187 251 273 327 64 349 101 112 41 128 190 201 176 183 181 188 163 175 166 172 193 194 166 159 154 147 139 137 133 132 129 128 127 124 122 121 118 115 115 112 107 101 90 103
40 24 22 88 258 250 236 280 286 233 314 18 68 66 304 244 322 324 261 174 202 199 198 182 207 190 176 170 158 154 147 142 139 134 132 132 130 128 127 125 121 119 117 119 115 110 95 83 114
72 62 10 323 261 254 253 23 291 99 96 347 346 184 248 197 283 251 144 183 176 175 198 195 198 197 181 167 159 153 145 144 140 137 136 134 131 129 128 126 124 120 118 117 116 112 96 87 115
42 90 12 262 259 286 266 156 255 61 60 256 24 80 280 313 324 359 227 176 178 165 170 180 180 182 165 157 152 148 141 143 140 140 138 136 133 132 133 130 124 120 116 112 111 112 104 92 110
129 103 241 259 288 294 222 134 29 85 45 23 357 195 346 323 309 2 75 159 147 154 151 155 170 182 126 129 119 137 139 141 140 140 140 139 137 137 136 132 125 121 115 108 106 111 110 89 89
110 105 280 250 281 283 298 113 184 81 84 266 305 44 61 293 322 40 87 141 158 168 157 132 153 143 146 138 141 133 136 144 144 143 142 143 141 138 138 133 126 122 117 109 103 108 99 89 76
107 80 272 260 319 277 120 118 345 31 131 145 63 67 92 352 21 48 98 132 140 143 118 126 131 128 141 132 138 140 157 149 146 143 144 144 140 140 141 135 130 124 118 111 109 108 101 95 82
119 152 248 229 274 208 132 89 138 75 1 41 61 66 21 110 109 74 78 137 146 138 122 127 132 140 143 142 148 150 153 150 146 146 146 145 142 142 143 138 132 128 119 124 122 112 95 103 99
194 220 260 275 229 158 131 97 187 192 53 141 240 144 149 134 180 165 186 155 162 155 147 148 149 142 145 149 150 163 157 150 145 147 148 145 144 143 144 141 137 137 132 135 134 135 131 116 111
289 262 254 251 162 131 153 138 124 294 200 130 147 169 158 168 165 266 184 174 166 171 154 156 153 157 157 157 156 171 159 150 148 149 143 141 143 147 149 146 147 143 146 144 141 138 127 135 124
192 282 304 253 82 89 113 110 155 82 119 127 125 157 140 148 174 179 298 165 156 166 159 164 164 158 161 163 170 166 157 152 151 152 149 150 149 153 153 151 155 149 153 160 159 152 153 149 135
292 281 267 286 137 146 126 185 142 166 146 126 116 121 143 153 163 106 114 115 132 143 157 163 167 169 165 162 168 165 157 157 157 156 152 152 155 158 158 160 159 161 171 177 177 173 175 164 146
282 323 328 294 238 139 142 140 222 161 157 150 149 158 148 154 170 179 174 173 169 164 144 163 170 168 168 166 166 163 158 158 158 162 153 160 164 163 158 160 169 171 179 187 182 179 181 179 164
335 354 333 282 65 200 168 251 161 172 166 153 149 166 176 177 192 183 173 161 174 168 171 141 155 169 170 168 166 159 160 155 151 148 156 161 166 164 158 171 187 185 195 197 194 190 190 187 190
356 252 244 300 239 151 150 241 174 175 150 154 166 166 184 196 176 191 179 174 171 165 163 150 138 155 162 161 157 159 159 153 148 157 168 168 163 170 178 190 196 206 199 200 204 198 196 198 199
217 228 280 251 240 128 174 232 196 171 158 164 167 172 187 193 196 186 183 176 176 170 169 167 164 146 157 161 166 158 153 159 168 176 178 173 177 195 203 204 205 202 201 198 194 196 205 213 208
266 263 267 270 236 141 214 218 210 169 156 168 174 180 189 195 181 179 183 184 177 172 171 162 173 172 170 169 172 176 175 175 191 193 185 196 212 216 222 222 221 214 204 205 207 208 209 214 207
255 266 279 263 218 159 203 248 167 186 188 182 181 184 187 179 169 184 189 180 184 180 182 178 175 174 170 169 176 188 189 195 205 203 201 215 231 229 224 224 222 221 218 216 213 211 206 201 201
254 250 259 217 227 314 101 289 233 195 162 166 200 193 184 182 177 187 190 188 188 189 192 190 184 182 181 179 181 187 191 202 210 217 222 228 228 240 236 236 227 226 222 216 214 213 215 211 206
259 253 254 235 121 216 133 272 264 223 191 202 194 194 189 189 183 184 191 193 192 198 198 193 195 192 191 190 190 192 198 204 211 220 228 230 235 233 235 232 233 230 221 218 221 219 222 223 212
256 215 230 244 225 136 298 115 258 227 202 217 198 200 196 188 183 188 194 193 196 196 197 199 198 201 198 195 196 198 208 218 223 225 228 232 232 238 239 235 236 233 224 220 227 223 220 223 216
250 188 249 12 104 341 270 147 266 174 215 219 212 200 197 190 192 193 196 190 193 193 193 195 197 203 207 208 206 211 220 220 218 219 223 228 234 236 235 238 236 232 225 224 221 225 221 221 218
188 98 270 323 342 230 285 273 231 229 212 211 206 210 199 194 191 193 191 191 192 193 193 193 194 201 205 209 216 223 227 226 227 226 227 228 229 230 231 224 225 226 232 229 223 226 223 219 226
208 161 163 204 204 269 314 252 251 215 262 244 218 211 200 191 198 195 194 193 192 192 193 196 200 204 208 212 219 223 226 227 229 232 229 232 233 233 229 224 226 224 225 223 223 222 222 224 223
242 166 188 112 26 78 249 298 298 276 325 143 212 190 205 198 196 199 196 197 197 195 196 196 201 207 207 210 214 222 226 227 229 232 234 233 231 223 232 224 222 227 218 222 226 229 223 216 217
193 171 101 14 145 233 270 265 242 306 320 59 242 191 193 203 199 202 200 199 199 201 200 200 204 206 212 215 217 223 230 232 233 233 233 232 236 229 232 226 225 220 220 224 231 228 220 217 223
217 189 119 134 144 168 206 257 230 212 234 258 276 230 209 195 197 201 202 203 201 204 201 203 207 210 208 215 218 219 224 230 233 232 234 236 231 231 226 225 225 222 221 228 228 221 220 219 214
209 195 172 165 219 198 160 251 296 236 206 225 255 292 215 209 188 195 194 199 199 201 202 204 207 209 209 211 217 223 223 226 229 222 228 236 237 226 225 224 226 222 224 228 221 216 218 211 200